< < Back
Terminal Aerodrome Forecast


Current Version              Previous Versions:   1  2  3  4  5  6  7  8  9  

Terminal Aerodrome Forecast

727
FTUS42 KCAE 301738
TAFAGS
TAF
KAGS 301738Z 3018/0118 15008KT P6SM SCT040 BKN250
     FM010500 13008KT P6SM BKN015
     FM010800 13004KT 4SM BR OVC007
     FM011400 20009KT P6SM SCT040=

Latest METAR

631
SAUS70 KWBC 301900 RRM
MTRAGS
METAR KAGS 301853Z 16009KT 10SM SCT060 31/17 A2997 RMK AO2 SLP147
T03060172


USA.gov is the U.S. government's official web portal to all federal, state and local government web resources and services.